This is the latest recevied weather packets stored in our database for station/object DM3DP. If no packets are shown the sender has not sent any weather packets the latest 10 day(s).
| Time | Temp. | Humidity | Pressure | Rain* | Wind** | Luminosity | Snow |
|---|---|---|---|---|---|---|---|
| 1777727823 | 25° C | 48% | 1014.9 hPa | 0 mm | - | 109 W/m² | - |
| 1777727494 | 25° C | 46% | 1014.9 hPa | 0 mm | - | 126 W/m² | - |
| 1777727163 | 25.56° C | 47% | 1014.9 hPa | 0 mm | - | 129 W/m² | - |
| 1777726833 | 25° C | 46% | 1015 hPa | 0 mm | - | 236 W/m² | - |
| 1777725843 | 25.56° C | 44% | 1015.3 hPa | 0 mm | - | 100 W/m² | - |
| 1777725513 | 26.11° C | 42% | 1015.4 hPa | 0 mm | - | 129 W/m² | - |
| 1777725183 | 26.67° C | 42% | 1015.4 hPa | 0 mm | - | 176 W/m² | - |
| 1777724853 | 26.67° C | 42% | 1015.4 hPa | 0 mm | - | 449 W/m² | - |
| 1777724193 | 26.67° C | 43% | 1015.6 hPa | 0 mm | - | 598 W/m² | - |
| 1777723863 | 26.67° C | 44% | 1015.7 hPa | 0 mm | - | 490 W/m² | - |
| 1777723533 | 26.11° C | 43% | 1015.8 hPa | 0 mm | - | 605 W/m² | - |
| 1777722544 | 26.11° C | 44% | 1016.2 hPa | 0 mm | - | 647 W/m² | - |
| 1777722214 | 25.56° C | 45% | 1016.2 hPa | 0 mm | - | 562 W/m² | - |
| 1777721883 | 25.56° C | 43% | 1016.3 hPa | 0 mm | - | 415 W/m² | - |
| 1777721553 | 25.56° C | 43% | 1016.3 hPa | 0 mm | - | 366 W/m² | - |
| 1777721224 | 25.56° C | 44% | 1016.4 hPa | 0 mm | - | 559 W/m² | - |
| 1777720893 | 25.56° C | 43% | 1016.5 hPa | 0 mm | - | 691 W/m² | - |
| 1777720563 | 25.56° C | 43% | 1016.6 hPa | 0 mm | - | 769 W/m² | - |
| 1777720234 | 25° C | 45% | 1016.6 hPa | 0 mm | - | 728 W/m² | - |
| 1777719903 | 25° C | 45% | 1016.6 hPa | 0 mm | - | 720 W/m² | - |
| 1777719573 | 25° C | 45% | 1016.6 hPa | 0 mm | - | 667 W/m² | - |
| 1777719243 | 25° C | 46% | 1016.9 hPa | 0 mm | - | 693 W/m² | - |
| 1777718914 | 25° C | 46% | 1017 hPa | 0 mm | - | 706 W/m² | - |
| 1777718584 | 25° C | 46% | 1017 hPa | 0 mm | - | 499 W/m² | - |
| 1777718253 | 24.44° C | 47% | 1017 hPa | 0 mm | - | 813 W/m² | - |
* Rain latest hour (hover to see other rain measurements)
** Current wind speed in m/s (hover to see current wind gust speed)